GTALE EGBM-EGBM

Flight info

Callsign GTALE
Flight time 0h 39m
Altitude 5500
Route EGBM DCT EGBM
Aircraft C152/L-SFG/C

Departure

Time 2026-05-05 13:55
Airport Tatenhill Airfield (EGBM)

Arrival

Time 2026-05-05 14:34
Airport Tatenhill Airfield (EGBM)
Time Latitude Longitude Altitude Speed Heading
2026-05-05 13:35 52.81615 -1.75675 439 ft 0 kts 206°
2026-05-05 13:48 52.81613 -1.75676 446 ft 1 kts 204°
2026-05-05 13:48 52.81606 -1.75672 439 ft 2 kts 104°
2026-05-05 13:49 52.81609 -1.75663 444 ft 0 kts 37°
2026-05-05 13:49 52.81612 -1.75661 435 ft 1 kts 27°
2026-05-05 13:49 52.81619 -1.75645 439 ft 1 kts 97°
2026-05-05 13:50 52.81608 -1.75605 445 ft 0 kts 116°
2026-05-05 13:50 52.81608 -1.75589 444 ft 6 kts 73°
2026-05-05 13:50 52.81616 -1.75585 444 ft 2 kts 270°
2026-05-05 13:50 52.81615 -1.75589 444 ft 0 kts 231°
2026-05-05 13:52 52.81615 -1.75588 444 ft 0 kts 231°
2026-05-05 13:53 52.81591 -1.75581 438 ft 9 kts 154°
2026-05-05 13:53 52.81565 -1.75595 434 ft 0 kts 252°
2026-05-05 13:53 52.81530 -1.75790 449 ft 44 kts 250°
2026-05-05 13:54 52.81404 -1.76463 501 ft 71 kts 261°
2026-05-05 13:54 52.81258 -1.77229 707 ft 70 kts 260°
2026-05-05 13:54 52.81113 -1.78012 908 ft 71 kts 262°
2026-05-05 13:54 52.80971 -1.78824 1032 ft 79 kts 242°
2026-05-05 13:55 52.80432 -1.79167 1195 ft 94 kts 179°
2026-05-05 13:55 52.79893 -1.79012 1277 ft 95 kts 164°
2026-05-05 13:56 52.79403 -1.78775 1319 ft 95 kts 162°
2026-05-05 13:56 52.78995 -1.78060 1392 ft 89 kts 88°
2026-05-05 13:56 52.79095 -1.77085 1377 ft 85 kts 70°
2026-05-05 13:56 52.79224 -1.76138 1442 ft 85 kts 77°
2026-05-05 13:57 52.79309 -1.75176 1474 ft 86 kts 78°
2026-05-05 13:57 52.79399 -1.74200 1516 ft 85 kts 71°
2026-05-05 13:57 52.79505 -1.73241 1555 ft 85 kts 71°
2026-05-05 13:57 52.79633 -1.72265 1553 ft 89 kts 72°
2026-05-05 13:58 52.79854 -1.71363 1536 ft 83 kts 36°
2026-05-05 13:58 52.80414 -1.71328 1512 ft 84 kts 343°
2026-05-05 13:58 52.80920 -1.71622 1503 ft 70 kts 341°
2026-05-05 13:58 52.81334 -1.71897 1366 ft 65 kts 339°
2026-05-05 13:59 52.82039 -1.72770 999 ft 65 kts 286°
2026-05-05 13:59 52.81934 -1.73513 861 ft 69 kts 259°
2026-05-05 14:00 52.81670 -1.75004 568 ft 69 kts 258°
2026-05-05 14:00 52.81572 -1.75490 588 ft 69 kts 258°
2026-05-05 14:00 52.81360 -1.76540 769 ft 72 kts 261°
2026-05-05 14:00 52.81194 -1.77307 956 ft 72 kts 263°
2026-05-05 14:01 52.80978 -1.78063 1136 ft 77 kts 226°
2026-05-05 14:01 52.80449 -1.78198 1313 ft 85 kts 169°
2026-05-05 14:01 52.79868 -1.77986 1573 ft 86 kts 166°
2026-05-05 14:01 52.79286 -1.77743 1808 ft 87 kts 161°
2026-05-05 14:02 52.79137 -1.77666 1829 ft 89 kts 161°
2026-05-05 14:03 52.78733 -1.77424 1902 ft 89 kts 154°
2026-05-05 14:03 52.78502 -1.76601 1931 ft 85 kts 80°
2026-05-05 14:04 52.78595 -1.75656 1947 ft 83 kts 70°
2026-05-05 14:04 52.78746 -1.74742 2003 ft 82 kts 68°
2026-05-05 14:04 52.78917 -1.73844 2010 ft 83 kts 64°
2026-05-05 14:04 52.79113 -1.72944 2037 ft 83 kts 61°
2026-05-05 14:05 52.79329 -1.72060 2049 ft 83 kts 59°
2026-05-05 14:05 52.79565 -1.71189 2060 ft 83 kts 67°
2026-05-05 14:05 52.79937 -1.70744 2110 ft 73 kts 349°
2026-05-05 14:05 52.80392 -1.71045 2079 ft 62 kts 336°
2026-05-05 14:06 52.80790 -1.71367 1840 ft 61 kts 336°
2026-05-05 14:06 52.81157 -1.71681 1612 ft 61 kts 335°
2026-05-05 14:06 52.81543 -1.72024 1376 ft 63 kts 333°
2026-05-05 14:06 52.81922 -1.72412 1149 ft 63 kts 316°
2026-05-05 14:07 52.81980 -1.73090 993 ft 63 kts 261°
2026-05-05 14:07 52.81879 -1.73842 830 ft 69 kts 264°
2026-05-05 14:07 52.81741 -1.74604 663 ft 68 kts 261°
2026-05-05 14:07 52.81608 -1.75352 524 ft 69 kts 259°
2026-05-05 14:08 52.81478 -1.76068 448 ft 53 kts 261°
2026-05-05 14:08 52.81364 -1.76712 497 ft 68 kts 259°
2026-05-05 14:08 52.81203 -1.77454 695 ft 70 kts 257°
2026-05-05 14:08 52.81037 -1.78190 884 ft 73 kts 254°
2026-05-05 14:10 52.80942 -1.78569 946 ft 77 kts 252°
2026-05-05 14:10 52.80471 -1.78869 1147 ft 85 kts 165°
2026-05-05 14:10 52.79894 -1.78610 1373 ft 87 kts 160°
2026-05-05 14:10 52.79289 -1.78256 1407 ft 95 kts 156°
2026-05-05 14:11 52.78973 -1.77536 1444 ft 77 kts 71°
2026-05-05 14:11 52.79153 -1.76680 1438 ft 80 kts 62°
2026-05-05 14:11 52.79385 -1.75828 1470 ft 83 kts 63°
2026-05-05 14:11 52.79571 -1.74901 1477 ft 86 kts 65°
2026-05-05 14:12 52.79712 -1.73941 1502 ft 86 kts 68°
2026-05-05 14:12 52.79855 -1.72956 1508 ft 89 kts 72°
2026-05-05 14:12 52.80036 -1.72023 1526 ft 79 kts 43°
2026-05-05 14:12 52.80515 -1.72083 1539 ft 75 kts 335°
2026-05-05 14:13 52.80920 -1.72450 1426 ft 65 kts 332°
2026-05-05 14:13 52.81292 -1.72845 1245 ft 61 kts 329°
2026-05-05 14:13 52.81650 -1.73248 1008 ft 64 kts 329°
2026-05-05 14:13 52.81890 -1.73821 837 ft 68 kts 273°
2026-05-05 14:14 52.81745 -1.74579 662 ft 65 kts 258°
2026-05-05 14:14 52.81604 -1.75349 637 ft 75 kts 258°
2026-05-05 14:14 52.81445 -1.76138 849 ft 69 kts 257°
2026-05-05 14:14 52.81332 -1.76621 986 ft 70 kts 255°
2026-05-05 14:15 52.80723 -1.76971 1188 ft 84 kts 164°
2026-05-05 14:15 52.80158 -1.76715 1350 ft 85 kts 162°
2026-05-05 14:15 52.79578 -1.76388 1383 ft 89 kts 160°
2026-05-05 14:15 52.79137 -1.75812 1428 ft 79 kts 83°
2026-05-05 14:16 52.79300 -1.74950 1359 ft 86 kts 56°
2026-05-05 14:16 52.79478 -1.74352 1344 ft 85 kts 54°
2026-05-05 14:16 52.79761 -1.73512 1343 ft 82 kts 53°
2026-05-05 14:16 52.80012 -1.72720 1375 ft 78 kts 60°
2026-05-05 14:17 52.80223 -1.71885 1357 ft 76 kts 45°
2026-05-05 14:17 52.80675 -1.71913 1405 ft 73 kts 341°
2026-05-05 14:17 52.81115 -1.72204 1291 ft 63 kts 340°
2026-05-05 14:17 52.81529 -1.72489 1072 ft 64 kts 338°
2026-05-05 14:18 52.81897 -1.72864 950 ft 61 kts 300°
2026-05-05 14:18 52.81861 -1.73626 824 ft 72 kts 269°
2026-05-05 14:18 52.81771 -1.74464 695 ft 76 kts 263°
2026-05-05 14:18 52.81615 -1.75305 566 ft 78 kts 263°
2026-05-05 14:19 52.81447 -1.76198 723 ft 78 kts 261°
2026-05-05 14:19 52.81276 -1.77016 959 ft 73 kts 261°
2026-05-05 14:19 52.80913 -1.77588 1154 ft 83 kts 186°
2026-05-05 14:19 52.80342 -1.77366 1308 ft 83 kts 162°
2026-05-05 14:20 52.79790 -1.77044 1373 ft 90 kts 156°
2026-05-05 14:20 52.79205 -1.76671 1410 ft 91 kts 160°
2026-05-05 14:20 52.78872 -1.76008 1467 ft 80 kts 73°
2026-05-05 14:20 52.79043 -1.75139 1472 ft 82 kts 68°
2026-05-05 14:21 52.79211 -1.74236 1499 ft 82 kts 67°
2026-05-05 14:21 52.79373 -1.73321 1537 ft 83 kts 65°
2026-05-05 14:21 52.79558 -1.72409 1560 ft 84 kts 63°
2026-05-05 14:21 52.79792 -1.71547 1615 ft 77 kts 43°
2026-05-05 14:22 52.80247 -1.71524 1684 ft 73 kts 341°
2026-05-05 14:22 52.80684 -1.71816 1629 ft 62 kts 339°
2026-05-05 14:22 52.81074 -1.72121 1440 ft 63 kts 335°
2026-05-05 14:22 52.81482 -1.72457 1224 ft 68 kts 335°
2026-05-05 14:23 52.81885 -1.72836 1058 ft 64 kts 316°
2026-05-05 14:23 52.81964 -1.73528 930 ft 68 kts 256°
2026-05-05 14:23 52.81797 -1.74269 762 ft 70 kts 264°
2026-05-05 14:23 52.81664 -1.75040 586 ft 70 kts 263°
2026-05-05 14:24 52.81521 -1.75804 534 ft 71 kts 260°
2026-05-05 14:24 52.81367 -1.76609 649 ft 72 kts 260°
2026-05-05 14:24 52.81181 -1.77389 802 ft 79 kts 257°
2026-05-05 14:24 52.80896 -1.78179 998 ft 82 kts 216°
2026-05-05 14:25 52.80340 -1.78188 1140 ft 84 kts 166°
2026-05-05 14:25 52.79779 -1.77899 1357 ft 84 kts 158°
2026-05-05 14:25 52.79199 -1.77526 1413 ft 92 kts 153°
2026-05-05 14:25 52.78756 -1.76915 1461 ft 79 kts 83°
2026-05-05 14:26 52.78979 -1.76093 1401 ft 81 kts 62°
2026-05-05 14:26 52.79151 -1.75188 1368 ft 84 kts 66°
2026-05-05 14:26 52.79311 -1.74260 1373 ft 83 kts 66°
2026-05-05 14:26 52.79471 -1.73340 1396 ft 84 kts 67°
2026-05-05 14:27 52.79626 -1.72381 1386 ft 86 kts 71°
2026-05-05 14:27 52.79850 -1.71514 1414 ft 77 kts 26°
2026-05-05 14:27 52.80334 -1.71642 1476 ft 77 kts 339°
2026-05-05 14:27 52.80774 -1.71974 1395 ft 62 kts 336°
2026-05-05 14:28 52.81161 -1.72295 1182 ft 66 kts 334°
2026-05-05 14:28 52.81568 -1.72656 1001 ft 65 kts 333°
2026-05-05 14:28 52.81904 -1.73126 844 ft 66 kts 296°
2026-05-05 14:28 52.81853 -1.73909 750 ft 72 kts 263°
2026-05-05 14:29 52.81730 -1.74683 631 ft 70 kts 258°
2026-05-05 14:29 52.81587 -1.75456 501 ft 70 kts 259°
2026-05-05 14:29 52.81436 -1.76253 577 ft 74 kts 258°
2026-05-05 14:29 52.81266 -1.77069 720 ft 78 kts 258°
2026-05-05 14:30 52.81071 -1.77907 909 ft 78 kts 256°
2026-05-05 14:30 52.80734 -1.78575 1139 ft 81 kts 200°
2026-05-05 14:30 52.80178 -1.78409 1318 ft 84 kts 162°
2026-05-05 14:30 52.79608 -1.78079 1416 ft 90 kts 154°
2026-05-05 14:31 52.79004 -1.77688 1418 ft 99 kts 154°
2026-05-05 14:31 52.78785 -1.76863 1502 ft 79 kts 74°
2026-05-05 14:31 52.78861 -1.75919 1479 ft 87 kts 76°
2026-05-05 14:31 52.78960 -1.74942 1467 ft 87 kts 72°
2026-05-05 14:32 52.79062 -1.73969 1483 ft 86 kts 71°
2026-05-05 14:32 52.79186 -1.72978 1422 ft 91 kts 71°
2026-05-05 14:32 52.79345 -1.71971 1376 ft 89 kts 68°
2026-05-05 14:32 52.79661 -1.71201 1363 ft 79 kts 10°
2026-05-05 14:33 52.80165 -1.71445 1380 ft 79 kts 337°
2026-05-05 14:33 52.80613 -1.71813 1352 ft 64 kts 334°
2026-05-05 14:33 52.81003 -1.72169 1125 ft 67 kts 333°
2026-05-05 14:33 52.81415 -1.72555 950 ft 69 kts 328°
2026-05-05 14:34 52.81823 -1.72986 812 ft 68 kts 323°
2026-05-05 14:34 52.81958 -1.73576 645 ft 63 kts 255°
2026-05-05 14:34 52.81920 -1.74195 434 ft 50 kts 319°
2026-05-05 14:34 52.82034 -1.74406 423 ft 0 kts 330°